QPF
0.00 0.00 0.00 0.00 0.00 0.00 0.00 0.00 0.00 0.00 0.00 0.00 0.00 0.00 0.00 0.00 0.00 0.00 0.00 0.00 0.00 0.01 0.02 0.03 0.03 0.04 0.05 0.05 0.07 0.09 0.09 0.09 0.10 0.11 0.11 0.13 0.15 0.14
0.00 0.00 0.00 0.00 0.00 0.00 0.00 0.00 0.00 0.00 0.00 0.00 0.00 0.00 0.00 0.00 0.00 0.00 0.00 0.00 0.00 0.00 0.01 0.02 0.04 0.04 0.05 0.05 0.06 0.07 0.08 0.08 0.08 0.08 0.08 0.08 0.08 0.10
0.00 0.00 0.00 0.00 0.00 0.00 0.00 0.00 0.00 0.00 0.00 0.00 0.00 0.00 0.00 0.00 0.00 0.00 0.00 0.00 0.00 0.00 0.00 0.00 0.01 0.01 0.02 0.03 0.04 0.04 0.05 0.06 0.06 0.06 0.06 0.06 0.06 0.06
0.00 0.00 0.00 0.00 0.00 0.00 0.00 0.00 0.00 0.00 0.00 0.00 0.00 0.00 0.00 0.00 0.00 0.00 0.00 0.00 0.00 0.00 0.00 0.00 0.00 0.00 0.00 0.00 0.01 0.01 0.02 0.03 0.03 0.04 0.04 0.04 0.04 0.05
0.00 0.00 0.00 0.00 0.00 0.00 0.00 0.00 0.00 0.00 0.00 0.00 0.00 0.00 0.00 0.00 0.00 0.00 0.00 0.00 0.00 0.00 0.00 0.00 0.00 0.00 0.00 0.00 0.00 0.00 0.00 0.00 0.01 0.01 0.02 0.03 0.04 0.04
0.00 0.00 0.00 0.00 0.00 0.00 0.00 0.00 0.00 0.00 0.00 0.00 0.00 0.00 0.00 0.00 0.00 0.00 0.00 0.00 0.00 0.00 0.00 0.00 0.00 0.00 0.00 0.00 0.00 0.00 0.00 0.00 0.00 0.00 0.00 0.01 0.02 0.02
0.00 0.00 0.00 0.00 0.00 0.00 0.00 0.00 0.00 0.00 0.00 0.00 0.00 0.00 0.00 0.00 0.00 0.00 0.00 0.00 0.00 0.00 0.00 0.00 0.00 0.00 0.00 0.00 0.00 0.00 0.00 0.00 0.00 0.00 0.00 0.00 0.01 0.01
0.00 0.00 0.00 0.00 0.00 0.00 0.00 0.00 0.00 0.00 0.00 0.00 0.00 0.00 0.00 0.01 0.01 0.00 0.00 0.00 0.00 0.00 0.00 0.00 0.00 0.00 0.00 0.00 0.00 0.00 0.00 0.00 0.00 0.00 0.00 0.00 0.00 0.01
0.00 0.00 0.00 0.00 0.00 0.00 0.00 0.00 0.00 0.00 0.00 0.00 0.00 0.00 0.00 0.01 0.02 0.01 0.02 0.02 0.01 0.01 0.01 0.00 0.00 0.00 0.00 0.00 0.00 0.00 0.00 0.00 0.00 0.00 0.00 0.00 0.00 0.00
0.00 0.00 0.00 0.00 0.00 0.00 0.00 0.00 0.00 0.00 0.00 0.00 0.00 0.00 0.01 0.01 0.02 0.02 0.02 0.02 0.01 0.01 0.01 0.00 0.00 0.00 0.00 0.00 0.00 0.00 0.00 0.00 0.00 0.00 0.00 0.00 0.00 0.00
0.00 0.00 0.00 0.00 0.00 0.00 0.00 0.00 0.00 0.00 0.00 0.00 0.00 0.00 0.00 0.00 0.01 0.01 0.01 0.01 0.01 0.01 0.01 0.01 0.00 0.00 0.00 0.00 0.00 0.00 0.00 0.00 0.00 0.00 0.00 0.00 0.00 0.00
0.01 0.01 0.00 0.00 0.01 0.01 0.00 0.01 0.01 0.01 0.01 0.01 0.01 0.00 0.00 0.00 0.00 0.00 0.01 0.02 0.01 0.01 0.01 0.01 0.00 0.01 0.01 0.00 0.00 0.00 0.01 0.00 0.00 0.00 0.00 0.00 0.00 0.00
0.01 0.01 0.01 0.01 0.01 0.01 0.00 0.00 0.00 0.01 0.02 0.02 0.02 0.01 0.01 0.01 0.01 0.01 0.01 0.01 0.02 0.01 0.01 0.02 0.01 0.01 0.01 0.01 0.00 0.01 0.01 0.01 0.00 0.00 0.00 0.00 0.00 0.00
0.01 0.01 0.01 0.02 0.01 0.01 0.00 0.00 0.00 0.00 0.01 0.01 0.01 0.01 0.01 0.00 0.01 0.01 0.02 0.02 0.02 0.01 0.01 0.02 0.02 0.02 0.02 0.02 0.01 0.01 0.01 0.01 0.01 0.01 0.01 0.01 0.00 0.00
0.01 0.01 0.01 0.01 0.01 0.01 0.00 0.00 0.00 0.00 0.00 0.01 0.01 0.01 0.00 0.00 0.01 0.02 0.02 0.02 0.01 0.01 0.00 0.01 0.02 0.02 0.02 0.01 0.00 0.01 0.01 0.01 0.01 0.01 0.01 0.01 0.02 0.02
0.02 0.02 0.01 0.01 0.01 0.01 0.01 0.01 0.01 0.01 0.01 0.02 0.02 0.01 0.01 0.01 0.01 0.01 0.01 0.02 0.02 0.01 0.01 0.01 0.02 0.02 0.02 0.01 0.01 0.00 0.01 0.01 0.01 0.01 0.01 0.01 0.02 0.03
0.02 0.02 0.02 0.02 0.02 0.03 0.03 0.04 0.04 0.04 0.04 0.03 0.03 0.03 0.02 0.02 0.02 0.02 0.02 0.01 0.01 0.01 0.01 0.02 0.04 0.04 0.03 0.02 0.01 0.01 0.01 0.01 0.01 0.02 0.03 0.02 0.01 0.02
0.01 0.02 0.02 0.03 0.04 0.05 0.07 0.07 0.08 0.07 0.07 0.06 0.05 0.05 0.05 0.04 0.03 0.02 0.02 0.02 0.01 0.01 0.01 0.02 0.05 0.06 0.04 0.02 0.01 0.01 0.01 0.01 0.02 0.03 0.04 0.03 0.01 0.02
0.01 0.01 0.02 0.03 0.04 0.05 0.06 0.07 0.08 0.08 0.09 0.09 0.08 0.07 0.06 0.05 0.05 0.04 0.03 0.02 0.01 0.01 0.01 0.03 0.05 0.06 0.05 0.02 0.02 0.01 0.01 0.03 0.04 0.03 0.04 0.03 0.02 0.02
0.01 0.01 0.02 0.03 0.05 0.05 0.06 0.07 0.08 0.09 0.10 0.10 0.09 0.08 0.07 0.06 0.05 0.04 0.04 0.04 0.04 0.04 0.03 0.04 0.04 0.04 0.04 0.04 0.04 0.04 0.02 0.03 0.06 0.06 0.05 0.05 0.04 0.02
0.02 0.02 0.03 0.04 0.05 0.06 0.07 0.08 0.09 0.09 0.09 0.10 0.10 0.10 0.10 0.09 0.07 0.05 0.05 0.05 0.04 0.05 0.04 0.04 0.06 0.04 0.05 0.07 0.04 0.02 0.04 0.04 0.03 0.07 0.08 0.09 0.07 0.06
0.03 0.03 0.05 0.07 0.07 0.08 0.09 0.09 0.09 0.09 0.09 0.10 0.10 0.10 0.10 0.09 0.08 0.06 0.06 0.07 0.06 0.05 0.04 0.05 0.08 0.10 0.08 0.06 0.03 0.03 0.05 0.08 0.06 0.02 0.03 0.06 0.09 0.08
0.05 0.05 0.06 0.08 0.10 0.11 0.11 0.10 0.10 0.09 0.09 0.10 0.11 0.11 0.11 0.11 0.10 0.09 0.08 0.07 0.07 0.06 0.06 0.07 0.08 0.09 0.08 0.07 0.06 0.05 0.05 0.08 0.10 0.08 0.04 0.02 0.01 0.02
MSLP
1019.86 1019.84 1019.79 1019.72 1019.63 1019.51 1019.36 1019.20 1019.03 1018.85 1018.69 1018.53 1018.39 1018.27 1018.17 1018.08 1018.01 1017.94 1017.89 1017.84 1017.80 1017.77 1017.75 1017.73 1017.74 1017.76 1017.80 1017.86 1017.96 1018.07 1018.22 1018.38 1018.55 1018.74 1018.93 1019.12 1019.32 1019.52
1019.68 1019.67 1019.63 1019.57 1019.48 1019.37 1019.23 1019.07 1018.90 1018.73 1018.57 1018.41 1018.27 1018.14 1018.02 1017.91 1017.82 1017.73 1017.66 1017.60 1017.55 1017.52 1017.50 1017.50 1017.51 1017.55 1017.59 1017.66 1017.75 1017.84 1017.95 1018.07 1018.19 1018.32 1018.44 1018.57 1018.70 1018.84
1019.45 1019.45 1019.43 1019.38 1019.31 1019.20 1019.07 1018.92 1018.76 1018.60 1018.43 1018.27 1018.11 1017.96 1017.83 1017.69 1017.57 1017.46 1017.36 1017.28 1017.22 1017.18 1017.16 1017.16 1017.19 1017.24 1017.30 1017.38 1017.47 1017.57 1017.67 1017.77 1017.87 1017.95 1018.03 1018.10 1018.17 1018.24
1019.17 1019.19 1019.19 1019.16 1019.10 1019.02 1018.91 1018.77 1018.62 1018.46 1018.29 1018.12 1017.95 1017.79 1017.62 1017.46 1017.31 1017.16 1017.03 1016.92 1016.83 1016.77 1016.73 1016.73 1016.76 1016.81 1016.88 1016.97 1017.07 1017.18 1017.29 1017.39 1017.48 1017.56 1017.61 1017.65 1017.68 1017.70
1018.84 1018.87 1018.89 1018.89 1018.86 1018.80 1018.71 1018.60 1018.46 1018.31 1018.15 1017.98 1017.80 1017.62 1017.43 1017.24 1017.05 1016.87 1016.70 1016.55 1016.42 1016.32 1016.25 1016.22 1016.22 1016.25 1016.31 1016.39 1016.50 1016.62 1016.74 1016.86 1016.97 1017.06 1017.12 1017.16 1017.16 1017.15
1018.43 1018.49 1018.53 1018.56 1018.56 1018.53 1018.47 1018.38 1018.27 1018.14 1017.99 1017.83 1017.65 1017.46 1017.25 1017.04 1016.83 1016.61 1016.40 1016.20 1016.02 1015.87 1015.75 1015.66 1015.60 1015.59 1015.61 1015.67 1015.76 1015.88 1016.02 1016.17 1016.30 1016.42 1016.51 1016.57 1016.58 1016.56
1017.95 1018.02 1018.09 1018.14 1018.17 1018.17 1018.14 1018.09 1018.00 1017.90 1017.77 1017.62 1017.45 1017.27 1017.06 1016.84 1016.61 1016.37 1016.13 1015.89 1015.66 1015.44 1015.25 1015.09 1014.96 1014.87 1014.83 1014.84 1014.90 1015.01 1015.15 1015.31 1015.48 1015.64 1015.77 1015.86 1015.91 1015.90
1017.38 1017.47 1017.55 1017.62 1017.68 1017.71 1017.71 1017.68 1017.63 1017.55 1017.45 1017.33 1017.18 1017.01 1016.81 1016.60 1016.37 1016.12 1015.86 1015.59 1015.32 1015.04 1014.78 1014.54 1014.34 1014.16 1014.05 1013.99 1013.99 1014.06 1014.18 1014.35 1014.54 1014.73 1014.91 1015.05 1015.14 1015.17
1016.74 1016.84 1016.93 1017.01 1017.08 1017.12 1017.15 1017.15 1017.12 1017.07 1016.99 1016.89 1016.77 1016.62 1016.45 1016.26 1016.04 1015.80 1015.54 1015.26 1014.97 1014.66 1014.35 1014.04 1013.76 1013.51 1013.31 1013.17 1013.11 1013.12 1013.21 1013.36 1013.55 1013.76 1013.97 1014.15 1014.28 1014.36
1016.08 1016.16 1016.24 1016.32 1016.38 1016.42 1016.45 1016.46 1016.45 1016.41 1016.36 1016.28 1016.18 1016.06 1015.92 1015.75 1015.57 1015.36 1015.12 1014.85 1014.56 1014.25 1013.91 1013.57 1013.24 1012.93 1012.66 1012.45 1012.31 1012.26 1012.29 1012.40 1012.57 1012.77 1012.99 1013.19 1013.35 1013.46
1015.42 1015.47 1015.52 1015.56 1015.59 1015.62 1015.63 1015.63 1015.61 1015.58 1015.53 1015.46 1015.38 1015.28 1015.17 1015.04 1014.89 1014.72 1014.53 1014.30 1014.05 1013.76 1013.44 1013.10 1012.75 1012.41 1012.10 1011.83 1011.63 1011.51 1011.48 1011.52 1011.64 1011.80 1011.99 1012.19 1012.35 1012.48
1014.79 1014.78 1014.77 1014.76 1014.74 1014.72 1014.69 1014.66 1014.62 1014.57 1014.51 1014.44 1014.36 1014.28 1014.19 1014.10 1013.99 1013.87 1013.74 1013.58 1013.38 1013.16 1012.89 1012.59 1012.26 1011.93 1011.60 1011.30 1011.05 1010.87 1010.76 1010.73 1010.77 1010.87 1011.00 1011.15 1011.29 1011.41
1014.19 1014.11 1014.02 1013.92 1013.83 1013.74 1013.65 1013.56 1013.48 1013.40 1013.32 1013.24 1013.16 1013.08 1013.01 1012.95 1012.89 1012.82 1012.75 1012.67 1012.55 1012.41 1012.22 1011.99 1011.72 1011.42 1011.11 1010.80 1010.52 1010.29 1010.11 1009.99 1009.95 1009.95 1010.01 1010.09 1010.18 1010.26
1013.61 1013.43 1013.24 1013.05 1012.86 1012.68 1012.52 1012.37 1012.23 1012.11 1012.00 1011.90 1011.81 1011.74 1011.68 1011.64 1011.62 1011.61 1011.60 1011.59 1011.57 1011.51 1011.42 1011.27 1011.08 1010.84 1010.57 1010.28 1009.98 1009.71 1009.47 1009.27 1009.13 1009.04 1009.00 1008.99 1009.01 1009.05
1012.99 1012.72 1012.42 1012.12 1011.83 1011.56 1011.31 1011.09 1010.90 1010.74 1010.59 1010.48 1010.38 1010.31 1010.27 1010.25 1010.26 1010.30 1010.35 1010.41 1010.46 1010.50 1010.49 1010.44 1010.32 1010.16 1009.93 1009.67 1009.38 1009.08 1008.79 1008.53 1008.30 1008.12 1007.98 1007.89 1007.83 1007.81
1012.30 1011.92 1011.52 1011.11 1010.73 1010.37 1010.05 1009.77 1009.53 1009.33 1009.17 1009.05 1008.95 1008.89 1008.86 1008.87 1008.91 1008.98 1009.08 1009.19 1009.30 1009.40 1009.47 1009.49 1009.45 1009.34 1009.17 1008.94 1008.66 1008.35 1008.04 1007.72 1007.43 1007.18 1006.96 1006.79 1006.68 1006.60
1011.49 1011.02 1010.52 1010.03 1009.56 1009.13 1008.75 1008.43 1008.16 1007.95 1007.79 1007.67 1007.59 1007.55 1007.54 1007.57 1007.64 1007.73 1007.86 1008.00 1008.15 1008.29 1008.40 1008.46 1008.47 1008.41 1008.28 1008.08 1007.82 1007.52 1007.19 1006.85 1006.53 1006.23 1005.97 1005.76 1005.60 1005.49
1010.55 1010.00 1009.43 1008.87 1008.34 1007.86 1007.45 1007.12 1006.85 1006.65 1006.51 1006.42 1006.37 1006.36 1006.38 1006.43 1006.51 1006.62 1006.75 1006.90 1007.06 1007.20 1007.32 1007.40 1007.43 1007.39 1007.28 1007.11 1006.87 1006.58 1006.26 1005.93 1005.60 1005.30 1005.02 1004.80 1004.63 1004.53
1009.51 1008.90 1008.28 1007.68 1007.12 1006.63 1006.21 1005.89 1005.64 1005.48 1005.38 1005.33 1005.32 1005.35 1005.40 1005.48 1005.57 1005.67 1005.80 1005.93 1006.06 1006.18 1006.28 1006.34 1006.35 1006.31 1006.21 1006.05 1005.83 1005.57 1005.28 1004.97 1004.67 1004.39 1004.15 1003.95 1003.80 1003.72
1008.42 1007.77 1007.12 1006.51 1005.95 1005.47 1005.08 1004.78 1004.58 1004.47 1004.42 1004.42 1004.47 1004.53 1004.62 1004.70 1004.79 1004.89 1004.98 1005.07 1005.16 1005.23 1005.28 1005.30 1005.28 1005.22 1005.11 1004.95 1004.75 1004.52 1004.26 1004.00 1003.75 1003.52 1003.33 1003.18 1003.08 1003.04
1007.37 1006.70 1006.04 1005.42 1004.88 1004.44 1004.09 1003.85 1003.70 1003.64 1003.65 1003.71 1003.80 1003.90 1004.00 1004.09 1004.17 1004.24 1004.29 1004.33 1004.35 1004.36 1004.35 1004.31 1004.24 1004.14 1004.01 1003.85 1003.66 1003.46 1003.24 1003.04 1002.85 1002.68 1002.55 1002.47 1002.43 1002.44
1006.42 1005.73 1005.08 1004.48 1003.98 1003.58 1003.29 1003.10 1003.02 1003.01 1003.07 1003.17 1003.29 1003.41 1003.52 1003.60 1003.65 1003.68 1003.68 1003.66 1003.62 1003.55 1003.47 1003.37 1003.25 1003.11 1002.95 1002.78 1002.60 1002.42 1002.24 1002.09 1001.95 1001.85 1001.79 1001.77 1001.79 1001.85
1005.63 1004.93 1004.29 1003.73 1003.26 1002.92 1002.68 1002.56 1002.52 1002.56 1002.66 1002.78 1002.91 1003.04 1003.13 1003.19 1003.20 1003.19 1003.13 1003.05 1002.94 1002.81 1002.66 1002.50 1002.33 1002.15 1001.96 1001.78 1001.60 1001.43 1001.28 1001.16 1001.07 1001.02 1001.02 1001.05 1001.12 1001.22
Thickness
5687 5684 5682 5684 5681 5680 5678 5676 5672 5672 5676 5677 5676 5676 5672 5671 5668 5667 5668 5668 5667 5668 5669 5671 5672 5674 5676 5678 5680 5682 5683 5685 5687 5688 5689 5690 5692 5694
5682 5679 5677 5680 5679 5676 5674 5672 5670 5667 5667 5672 5670 5672 5667 5665 5665 5662 5663 5662 5661 5663 5663 5664 5665 5667 5669 5671 5673 5675 5677 5679 5681 5683 5685 5686 5689 5691
5680 5678 5674 5672 5673 5673 5671 5669 5667 5664 5661 5665 5667 5667 5660 5657 5659 5658 5659 5659 5662 5659 5658 5657 5658 5660 5662 5664 5666 5668 5670 5672 5674 5677 5679 5681 5684 5686
5678 5675 5672 5672 5668 5666 5665 5664 5663 5660 5656 5655 5658 5659 5658 5655 5653 5652 5654 5657 5656 5656 5653 5652 5652 5653 5654 5656 5658 5660 5662 5665 5667 5670 5672 5676 5678 5681
5675 5672 5670 5667 5664 5663 5659 5659 5659 5658 5655 5653 5653 5654 5653 5653 5650 5649 5650 5649 5649 5652 5649 5648 5647 5646 5647 5649 5651 5653 5655 5658 5660 5663 5665 5668 5672 5675
5672 5670 5667 5664 5661 5658 5656 5653 5652 5650 5650 5648 5649 5650 5648 5648 5644 5643 5645 5647 5646 5647 5647 5645 5643 5641 5642 5643 5644 5646 5648 5650 5652 5655 5658 5661 5665 5669
5669 5667 5665 5661 5658 5654 5653 5652 5648 5645 5646 5646 5645 5645 5644 5641 5640 5641 5640 5639 5640 5640 5640 5640 5641 5641 5642 5639 5639 5640 5641 5643 5645 5648 5651 5654 5658 5662
5666 5664 5662 5658 5653 5647 5644 5641 5639 5638 5639 5638 5639 5638 5635 5635 5633 5631 5631 5631 5631 5635 5632 5632 5634 5635 5636 5636 5638 5636 5635 5635 5637 5640 5643 5647 5651 5655
5663 5660 5659 5661 5653 5649 5643 5636 5633 5629 5627 5627 5630 5629 5629 5628 5624 5623 5622 5621 5620 5623 5622 5623 5626 5627 5630 5632 5630 5629 5628 5628 5630 5632 5635 5639 5643 5647
5659 5657 5655 5653 5651 5646 5643 5640 5637 5633 5628 5622 5622 5623 5621 5619 5617 5614 5613 5613 5614 5614 5613 5613 5617 5620 5624 5625 5625 5624 5623 5623 5624 5626 5629 5632 5635 5639
5656 5655 5652 5649 5646 5638 5634 5633 5632 5631 5628 5624 5621 5618 5614 5610 5607 5606 5608 5608 5611 5612 5613 5609 5611 5613 5616 5619 5621 5619 5618 5619 5620 5621 5623 5625 5628 5631
5653 5651 5647 5644 5641 5633 5628 5627 5626 5626 5624 5623 5616 5612 5609 5606 5601 5598 5601 5603 5605 5607 5608 5604 5605 5605 5606 5613 5615 5616 5615 5615 5615 5616 5618 5620 5621 5624
5648 5648 5648 5642 5633 5626 5621 5622 5622 5619 5618 5616 5614 5613 5610 5608 5605 5601 5598 5597 5599 5602 5603 5599 5597 5597 5597 5602 5606 5609 5610 5612 5613 5614 5614 5616 5617 5619
5636 5639 5639 5632 5625 5619 5614 5613 5610 5605 5607 5609 5610 5611 5610 5608 5607 5604 5600 5596 5594 5594 5593 5590 5589 5588 5589 5592 5597 5601 5604 5606 5607 5610 5614 5615 5613 5615
5623 5624 5620 5616 5611 5609 5606 5603 5598 5597 5600 5602 5604 5606 5607 5606 5602 5598 5594 5591 5588 5587 5587 5584 5582 5582 5583 5585 5589 5593 5595 5598 5600 5603 5607 5611 5614 5616
5608 5609 5605 5602 5599 5599 5599 5596 5593 5595 5597 5597 5599 5600 5600 5599 5595 5592 5589 5588 5585 5586 5584 5581 5578 5577 5577 5580 5582 5585 5588 5590 5594 5596 5601 5605 5610 5613
5589 5591 5593 5595 5596 5596 5596 5595 5594 5592 5589 5589 5590 5590 5590 5590 5588 5586 5583 5581 5580 5580 5581 5581 5579 5574 5573 5573 5575 5579 5582 5584 5587 5590 5590 5595 5602 5608
5567 5577 5581 5583 5585 5586 5586 5586 5585 5583 5581 5581 5580 5581 5581 5580 5580 5579 5577 5574 5573 5574 5574 5575 5573 5570 5567 5569 5568 5570 5574 5578 5582 5584 5585 5588 5595 5603
5556 5565 5568 5570 5571 5571 5572 5572 5573 5573 5571 5570 5570 5571 5572 5572 5571 5570 5569 5568 5567 5568 5569 5568 5567 5563 5562 5566 5573 5568 5570 5574 5576 5579 5581 5584 5589 5596
5551 5552 5553 5554 5555 5555 5556 5558 5559 5559 5558 5557 5557 5558 5560 5561 5561 5562 5563 5562 5561 5562 5562 5562 5561 5560 5560 5563 5567 5570 5565 5568 5569 5571 5575 5579 5584 5588
5535 5535 5535 5536 5536 5537 5539 5540 5541 5543 5544 5545 5546 5548 5550 5551 5552 5554 5555 5554 5552 5555 5556 5558 5559 5556 5556 5555 5557 5563 5566 5563 5564 5565 5567 5569 5574 5579
5514 5514 5515 5516 5517 5519 5521 5523 5525 5528 5530 5532 5535 5538 5540 5542 5544 5545 5547 5548 5549 5550 5552 5554 5553 5550 5548 5549 5552 5558 5560 5561 5560 5558 5558 5561 5564 5570
5496 5496 5498 5500 5503 5504 5507 5511 5514 5517 5520 5522 5524 5527 5530 5533 5535 5538 5540 5542 5544 5545 5545 5546 5546 5545 5545 5546 5548 5551 5554 5556 5557 5556 5558 5559 5556 5557